TITAN 3C TRANSTAGE DEB, 59982

Orbit data source: Space-Track

TITAN 3C TRANSTAGE DEB, 59982 is space debris in GEO originally from a launch on Thu, 26 Sep 1968 UTC launched from the Air Force Eastern Test Range (AFETR). Debris objects in space refer to the collection of defunct objects orbiting the Earth. Examples of debris include non-operational satellites, rocket bodies, and fragments generated from explosions, collisions, or faulty payload assembly.

Loading next visibility...
Identifier
59982, 1968-081AQ
Orbit
GEO
Country
Flag of USUS
Related business
Manufacturer
Unknown
Mission
Spacecraft
Bus & Motor
Unknown
Mass
Unknown
Launch date (UTC)
1968-09-26 (58 years ago)
Launch vehicle
Unknown
Launch site
Air Force Eastern Test Range (AFETR)
Object type
Payload
Rocket body
Debris
Shape & HBR
Unknown shape, 1.1 m
Radar Cross Section
RCS unknown

Expand to show TLE details & history
Last TLE update: 2 months ago

TLE from 2 months ago
0 TITAN 3C TRANSTAGE DEB
1 59982U 68081AQ  26199.05387872 -.00000026  00000-0  00000-0 0  9992
2 59982   2.1282  32.2592 0698283 254.8682  97.5076  0.99566162 19417
Epoch: 2026-07-18T01:17Z
TLE epoch observation values (Epoch: 2026-07-18T01:17:35.121Z)
Latitude
-0°
Longitude
77.23881°
Altitude
36,571.257 km
Speed
3.025 km/s
True Right ascension
02h 10m 01s
True Declination
0° 00' 00"
Sunlit
Object was in daylight at epoch
Visualization orbit readout
Latitude
Unknown
Longitude
Unknown
Altitude
Unknown
Speed
Unknown
Apparent Right ascension
Unknown
Apparent Declination
Unknown
Sunlit
N/A
Visualization observer readout
Local Sidereal Time
03:24:08
Azimuth
Unknown
Elevation
Unknown
Doppler factor
Unknown
Orbital elements
Apogee altitude
38,944.906 km
Perigee altitude
33,028.384 km
Semi-major axis
42,364.782 km
Eccentricity
0.06983
Inclination
2.1282°
RAAN
32.2592°
Arg. of periapsis
254.8682°
True anomaly
105.32694°
Mean anomaly
97.5076°
Eccentric anomaly
101.42913°
Mean motion
0.24891 °/min
Orbital period
1,446.33 mins
BSTAR
0
Loading maneuver chart data...
Computing Atmospheric mass density...

Documentation

Showing up to 5 results
|